sat.trackr.live / text

‹ back to catalog

STARLINK-34538

NORAD 64689 · 2025-139AB

PAYLOAD ACTIVE UNKNOWN

§ Identity

Operator
Country
US
Launch date
2025-06-28
Launch site
AFETR
Launch vehicle
Mass (kg)
RCS (m²)

Purposes: comms

External: N2YO · Heavens-Above · Gunter

§ Orbital elements

Epoch: 2026-09-20T09:06:40.308480Z

Period
93.85 min
Inclination
53.1599°
Eccentricity
0.0001080
Mean motion
15.34386599 rev/d
Perigee alt
462.0 km
Apogee alt
463.5 km
Semi-major
6,840.9 km
B*
4.1052e-4
RAAN
298.3494°
Arg perigee
96.3439°
Mean anomaly
263.7687°
Rev number
7,015

§ Raw data

STARLINK-345381 64689U 25139AB  26263.37963320  .00013513  00000+0  41052-3 0  99922 64689  53.1599 298.3494 0001080  96.3439 263.7687 15.34386599 70154

JSON: /api/v1/satellites/64689 · /tle

For live sub-satellite position, see the globe view (requires WebGL).

§ Visibility from observer

Set your observer location to see the next 7 days of passes ≥ 10°. The values pass through the URL so the page stays shareable.

No JS? Fill the form by hand. The geolocation button needs JavaScript.